北斗三号 G2 (BEIDOU 3 G2)

导读

BEIDOU-3 G2 是中国北斗三号全球卫星导航系统中的地球静止轨道卫星之一,属于北斗三号的地球同步轨道(GEO)卫星系列。该卫星于2020年发射,主要承担增强系统定位精度、提供区域增强服务和短报文通信等功能。BEIDOU-3 G2 的部署有助于提升北斗系统在全球范围内的服务性能和可靠性,特别是在亚太地区,为交通运输、气象预报、应急救援等领域提供高精度导航和定位服务。

基本信息
目录编号:
45344
目录名称:
BEIDOU 3 G2
国际标识:
2020-017A
轨道中心:
EARTH
卫星名称:
北斗三号 G2
卫星全名:
北斗三号 G2 (BEIDOU 3 G2)
卫星状态:
在轨 (已飞行2288 天)
发射日期:
2020-03-09 UTC
国别 :
中国 (CN)
星等 :
--
轨道信息
数据来源 国际轨道数据 AOE轨道数据
星历时间 2026-06-14T06:57:38+0800
10小时前
查看轨道信息
2026-06-14T08:00:00+0800
9小时前
查看轨道信息
半长轴 42164.56km 42164.532km
偏心率 0.0002115 0.000205
轨道倾角 2.856° 2.857°
近地点辐角 32.395° 31.998°
升交点赤经 47.291° 47.333°
平近点角 247.060° 263.050°
近地点 35777.505km 35777.751km
远地点 35795.341km 35795.039km
周期 1436.088分钟 1436.087分钟
每日圈数 1.002724 1.002725
详细信息
卫星平台:
东方红三号B
平衡模式:
三轴稳定
制造商(研发单位):
中国空间技术研究院
制造商所在国:
中国
使用方式:
暂无
工作目标:
为亚洲用户提供连续、稳定、可靠的北斗导航、定位服务
预期寿命:
8年
卫星简介
北斗卫星导航系统是中国着眼于国家安全和经济社会发展需要,自主建设运行的全球卫星导航系统,是为全球用户提供全天候、全天时、高精度的定位、导航和授时服务的国家重要时空基础设施。该卫星仍在工作。
2D轨道图
3D轨道图
轨道高度分析图
轨道倾角分析图
轨道综合分析图
查看轨道综合分析图